DF1NIF-13 Weather Reports


Display with metric or nautical units.
time (UTC)temp
F
wind
direction
speed
MPH
gust
MPH
rain 1hr
in
rain 24hr
in
rain mn
in
humidity
%
barometer
mb
20260901162503 71 124 2.0 3.0 0.00 0.00 0.00 47 974.2
20260901162028 71 132 6.0 5.0 0.00 0.00 0.00 47 974.0
20260901161538 71 108 6.0 5.0 0.00 0.00 0.00 47 974.1
20260901161115 71 121 3.0 5.0 0.00 0.00 0.00 47 973.9
20260901160638 71 106 5.0 9.0 0.00 0.00 0.00 47 974.1
20260901160203 71 123 4.0 5.0 0.00 0.00 0.00 45 974.2
20260901155733 71 138 1.0 11.0 0.00 0.00 0.00 45 974.0
20260901155253 71 136 2.0 7.0 0.00 0.00 0.00 45 974.0
20260901154818 72 139 4.0 5.0 0.00 0.00 0.00 45 974.1
20260901154343 72 171 7.0 5.0 0.00 0.00 0.00 45 974.2
20260901153855 72 314 7.0 5.0 0.00 0.00 0.00 45 974.1
20260901153418 72 344 7.0 9.0 0.00 0.00 0.00 45 974.0
20260901152955 72 344 7.0 11.0 0.00 0.00 0.00 45 974.1
20260901152553 72 344 4.0 9.0 0.00 0.00 0.00 45 974.0
20260901152113 71 326 6.0 7.0 0.00 0.00 0.00 45 974.0
20260901151628 71 184 6.0 9.0 0.00 0.00 0.00 45 974.1
20260901151139 71 267 0.0 9.0 0.00 0.00 0.00 45 974.1
20260901150653 71 150 6.0 5.0 0.00 0.00 0.00 45 974.0
20260901150248 71 277 0.0 0.0 0.00 0.00 0.00 100 974.1
20260901145835 69 288 2.0 5.0 0.00 0.00 0.00 100 973.8
20260901145348 70 326 6.0 9.0 0.00 0.00 0.00 100 974.1
20260901144933 70 354 0.0 0.0 0.00 0.00 0.00 100 974.0
20260901144513 70 330 1.0 11.0 0.00 0.00 0.00 48 974.0
20260901144048 71 330 11.0 9.0 0.00 0.00 0.00 47 974.1
20260901143613 71 253 1.0 13.0 0.00 0.00 0.00 52 974.3
20260901143135 71 343 10.0 7.0 0.00 0.00 0.00 52 974.0
20260901142718 71 299 4.0 14.0 0.00 0.00 0.00 52 974.0
20260901142308 71 334 4.0 11.0 0.00 0.00 0.00 52 974.1
20260901141853 71 337 4.0 14.0 0.00 0.00 0.00 52 974.2
20260901141423 69 337 4.0 7.0 0.00 0.00 0.00 52 974.2
20260901140954 68 306 1.0 11.0 0.00 0.00 0.00 52 974.2
20260901140528 68 169 1.0 9.0 0.00 0.00 0.00 52 974.5
20260901140058 70 169 1.0 14.0 0.00 0.00 0.00 51 974.3
20260901135653 70 305 1.0 18.0 0.00 0.00 0.00 51 974.4
20260901135223 70 287 3.0 7.0 0.00 0.00 0.00 51 974.3
20260901134753 70 230 3.0 14.0 0.00 0.00 0.00 51 974.3
20260901134323 69 1 3.0 7.0 0.00 0.00 0.00 51 974.3
20260901133853 69 343 5.0 9.0 0.00 0.00 0.00 50 974.4
20260901133426 69 262 5.0 11.0 0.00 0.00 0.00 51 974.5
20260901133015 69 343 1.0 11.0 0.00 0.00 0.00 54 974.5
20260901132547 71 127 7.0 9.0 0.00 0.00 0.00 54 974.5
20260901132148 69 127 4.0 7.0 0.00 0.00 0.00 54 974.6
20260901131728 67 199 2.0 7.0 0.00 0.00 0.00 54 974.7
20260901131233 67 57 1.0 3.0 0.00 0.00 0.00 54 974.5
20260901130818 67 298 4.0 5.0 0.00 0.00 0.00 54 974.6
20260901130338 68 298 6.0 5.0 0.00 0.00 0.00 54 974.8
20260901125928 67 276 6.0 5.0 0.00 0.00 0.00 54 975.0
20260901125453 67 342 5.0 11.0 0.00 0.00 0.00 54 974.7
20260901125033 68 307 1.0 7.0 0.00 0.00 0.00 54 974.7
20260901124533 68 351 1.0 3.0 0.00 0.00 0.00 54 974.8
20260901124103 68 347 6.0 11.0 0.00 0.00 0.00 54 974.6
20260901123608 68 318 8.0 11.0 0.00 0.00 0.00 54 974.7
20260901123133 68 305 2.0 11.0 0.00 0.00 0.00 54 974.7
20260901122653 68 147 2.0 13.0 0.00 0.00 0.00 59 974.8
20260901122223 69 2 6.0 13.0 0.00 0.00 0.00 59 974.7
20260901121803 68 2 6.0 13.0 0.00 0.00 0.00 59 975.0
20260901121343 68 2 6.0 9.0 0.00 0.00 0.00 59 974.9
20260901120858 68 344 6.0 14.0 0.00 0.00 0.00 59 974.7
20260901120446 68 324 6.0 7.0 0.00 0.00 0.00 59 974.7
20260901120018 68 314 1.0 13.0 0.00 0.00 0.00 59 974.9
20260901115525 68 297 4.0 13.0 0.00 0.00 0.00 59 974.7
20260901115113 69 342 9.0 13.0 0.00 0.00 0.00 59 974.9
20260901114628 67 12 6.0 13.0 0.00 0.00 0.00 59 974.7
20260901114153 67 3 9.0 14.0 0.00 0.00 0.00 59 974.8
20260901113703 67 353 3.0 18.0 0.00 0.00 0.00 55 974.8
20260901113228 67 0 3.0 14.0 0.00 0.00 0.00 55 974.8
20260901112803 67 358 10.0 11.0 0.00 0.00 0.00 55 974.7
20260901112348 67 291 8.0 14.0 0.00 0.00 0.00 55 974.9
20260901111920 67 302 8.0 14.0 0.00 0.00 0.00 55 974.8
20260901111501 66 302 8.0 25.0 0.00 0.00 0.00 55 974.8
20260901111055 66 288 8.0 18.0 0.00 0.00 0.00 58 974.8
20260901110626 66 354 6.0 14.0 0.00 0.00 0.00 58 974.8
20260901110158 66 354 9.0 9.0 0.00 0.00 0.00 58 974.9
20260901105708 66 348 9.0 14.0 0.00 0.00 0.00 58 974.9
20260901105238 67 21 9.0 7.0 0.00 0.00 0.00 58 974.8
20260901104753 67 335 6.0 7.0 0.00 0.00 0.00 59 975.0
20260901104327 65 345 6.0 13.0 0.00 0.00 0.00 59 974.8
20260901103903 65 10 6.0 11.0 0.00 0.00 0.00 59 974.8
20260901103422 65 196 3.0 16.0 0.00 0.00 0.00 59 975.1
20260901102935 66 255 3.0 16.0 0.00 0.00 0.00 59 974.8
20260901102508 66 291 16.0 16.0 0.00 0.00 0.00 59 975.0
20260901102048 67 291 5.0 16.0 0.00 0.00 0.00 59 974.8
20260901101618 67 132 5.0 14.0 0.00 0.00 0.00 62 974.7
20260901101143 65 312 4.0 14.0 0.00 0.00 0.00 62 974.8
20260901100713 65 275 2.0 14.0 0.00 0.00 0.00 62 975.1
20260901100258 65 351 2.0 11.0 0.00 0.00 0.00 63 975.1
20260901095828 64 302 2.0 16.0 0.00 0.00 0.00 63 974.9
20260901095403 63 290 6.0 16.0 0.00 0.00 0.00 63 974.7
20260901094943 64 245 5.0 16.0 0.00 0.00 0.00 63 974.8
20260901094513 64 322 1.0 14.0 0.00 0.00 0.00 63 975.1
20260901094025 64 297 12.0 11.0 0.00 0.00 0.00 63 975.1
20260901093538 63 297 4.0 9.0 0.00 0.00 0.00 66 974.9
20260901093053 63 322 9.0 13.0 0.00 0.00 0.00 66 974.9
20260901092614 63 243 9.0 18.0 0.00 0.00 0.00 67 975.0
20260901092148 65 348 6.0 13.0 0.00 0.00 0.00 67 975.0
20260901091735 65 346 6.0 0.0 0.00 0.00 0.00 67 975.2
20260901091248 62 278 1.0 14.0 0.00 0.00 0.00 67 974.9
20260901090803 62 166 6.0 14.0 0.00 0.00 0.00 66 975.1
20260901090343 62 329 5.0 14.0 0.00 0.00 0.00 70 975.0
20260901085903 62 329 4.0 5.0 0.00 0.00 0.00 70 975.0
20260901085423 62 351 2.0 5.0 0.00 0.00 0.00 70 975.1
20260901084953 63 301 5.0 5.0 0.00 0.00 0.00 70 975.1
20260901084513 63 301 6.0 5.0 0.00 0.00 0.00 71 974.9
20260901084015 62 301 6.0 14.0 0.00 0.00 0.00 77 974.9
20260901083548 62 275 6.0 11.0 0.00 0.00 0.00 77 974.9
20260901083148 62 314 12.0 11.0 0.00 0.00 0.00 77 974.9
20260901082728 63 107 2.0 11.0 0.00 0.00 0.00 77 975.1
20260901082253 62 321 4.0 13.0 0.00 0.00 0.00 77 974.7
20260901081828 62 307 4.0 9.0 0.00 0.00 0.00 77 974.7
20260901081405 62 307 7.0 13.0 0.00 0.00 0.00 77 975.0
20260901080945 62 290 1.0 9.0 0.00 0.00 0.00 77 975.0
20260901080458 61 295 7.0 7.0 0.00 0.00 0.00 77 974.9
20260901080043 61 330 7.0 9.0 0.00 0.00 0.00 77 974.6
20260901075623 61 330 3.0 11.0 0.00 0.00 0.00 77 974.9
20260901075143 62 330 3.0 11.0 0.00 0.00 0.00 77 974.8
20260901074728 62 330 5.0 11.0 0.00 0.00 0.00 77 974.6
20260901074258 62 330 4.0 9.0 0.00 0.00 0.00 77 974.7
20260901073858 62 330 1.0 9.0 0.00 0.00 0.00 78 974.6
20260901073423 62 313 1.0 9.0 0.00 0.00 0.00 78 974.6
20260901073006 60 313 9.0 13.0 0.00 0.00 0.00 78 974.6
20260901072544 60 313 0.0 9.0 0.00 0.00 0.00 86 974.6
20260901072108 60 329 0.0 16.0 0.00 0.00 0.00 86 974.5
20260901071622 60 301 6.0 11.0 0.00 0.00 0.00 86 974.5
20260901071203 60 273 2.0 9.0 0.00 0.00 0.00 86 974.6
20260901070733 60 342 2.0 7.0 0.00 0.00 0.00 86 974.6
20260901070253 60 295 0.0 5.0 0.00 0.00 0.00 86 974.4
20260901065833 60 305 0.0 7.0 0.00 0.00 0.00 86 974.4
20260901065353 59 317 2.0 3.0 0.00 0.00 0.00 86 974.4
20260901064935 59 310 2.0 9.0 0.00 0.00 0.00 86 974.5
20260901064458 59 306 8.0 9.0 0.00 0.00 0.00 86 974.4
20260901064015 57 279 4.0 9.0 0.00 0.00 0.00 86 974.4
20260901063558 57 279 2.0 9.0 0.00 0.00 0.00 86 974.3
20260901063143 57 279 3.0 9.0 0.00 0.00 0.00 86 974.4
20260901062658 57 342 1.0 3.0 0.00 0.00 0.00 86 974.4
20260901062228 57 149 1.0 3.0 0.00 0.00 0.00 86 974.3
20260901061808 57 149 1.0 3.0 0.00 0.00 0.00 92 974.4
20260901061338 57 149 0.0 3.0 0.00 0.00 0.00 92 974.3
20260901060843 57 149 2.0 1.0 0.00 0.00 0.00 92 974.4
20260901060428 57 118 0.0 1.0 0.00 0.00 0.00 92 974.6
20260901055953 57 118 0.0 0.0 0.00 0.00 0.00 92 974.4
20260901055458 57 118 1.0 1.0 0.00 0.00 0.00 92 974.4
20260901055033 57 210 2.0 1.0 0.00 0.00 0.00 92 974.4
20260901054613 57 274 0.0 1.0 0.00 0.00 0.00 92 974.4
20260901054153 57 274 0.0 0.0 0.00 0.00 0.00 92 974.3
20260901053718 57 274 0.0 3.0 0.00 0.00 0.00 92 974.3
20260901053243 57 354 1.0 3.0 0.00 0.00 0.00 92 974.4
20260901052803 57 354 1.0 3.0 0.00 0.00 0.00 92 974.3
20260901052333 57 354 1.0 5.0 0.00 0.00 0.00 92 974.4
20260901051838 57 354 0.0 3.0 0.00 0.00 0.00 92 974.2
20260901051433 57 343 1.0 5.0 0.00 0.00 0.00 92 974.2
20260901051003 57 256 1.0 1.0 0.00 0.00 0.00 92 974.0
20260901050543 57 256 1.0 5.0 0.00 0.00 0.00 92 974.3
20260901050058 57 256 1.0 5.0 0.00 0.00 0.00 92 974.3
20260901045633 57 256 1.0 5.0 0.00 0.00 0.00 92 974.3
20260901045213 57 256 1.0 5.0 0.00 0.00 0.00 92 974.2
20260901044743 57 256 1.0 5.0 0.00 0.00 0.00 92 974.1
20260901044326 57 256 2.0 14.0 0.00 0.00 0.00 92 974.2
20260901043859 57 256 2.0 7.0 0.00 0.00 0.00 92 974.2
20260901043443 57 203 2.0 3.0 0.00 0.00 0.00 92 974.2
20260901043008 57 203 1.0 9.0 0.00 0.00 0.00 92 973.9
20260901042553 57 203 1.0 9.0 0.00 0.00 0.00 92 974.2
20260901042138 57 203 1.0 9.0 0.00 0.00 0.00 92 974.1
20260901041701 57 203 1.0 9.0 0.00 0.00 0.00 92 974.2
20260901041233 57 205 2.0 7.0 0.00 0.00 0.00 92 974.0
20260901040738 57 205 2.0 7.0 0.00 0.00 0.00 92 973.9
20260901040308 57 205 2.0 5.0 0.00 0.00 0.00 92 974.0
20260901035838 57 205 0.0 5.0 0.00 0.00 0.00 92 973.8
20260901035408 57 205 1.0 5.0 0.00 0.00 0.00 92 973.7
20260901034918 57 205 1.0 5.0 0.00 0.00 0.00 92 973.9
20260901034428 57 205 2.0 5.0 0.00 0.00 0.00 92 973.7
20260901033958 57 205 1.0 1.0 0.00 0.00 0.00 92 973.7
20260901033533 57 205 0.0 1.0 0.00 0.00 0.00 92 973.9
20260901033118 57 205 0.0 3.0 0.00 0.00 0.00 92 973.7
20260901032648 57 262 1.0 1.0 0.00 0.00 0.00 92 973.7
20260901032223 57 262 2.0 5.0 0.00 0.00 0.00 92 973.6
20260901031813 57 262 2.0 1.0 0.00 0.00 0.00 92 973.6
20260901031353 57 263 2.0 1.0 0.00 0.00 0.00 92 973.6
20260901030923 57 263 2.0 1.0 0.00 0.00 0.00 92 973.5
20260901030453 58 279 0.0 3.0 0.00 0.00 0.00 92 973.6
20260901030028 58 279 2.0 1.0 0.00 0.00 0.00 92 973.6
20260901025539 58 279 2.0 3.0 0.00 0.00 0.00 92 973.5
20260901025108 58 279 2.0 3.0 0.00 0.00 0.00 92 973.4
20260901024633 58 279 2.0 3.0 0.00 0.00 0.00 92 973.7
20260901024213 58 279 2.0 3.0 0.00 0.00 0.00 92 973.3
20260901023758 58 262 0.0 1.0 0.00 0.00 0.00 92 973.4
20260901023333 58 262 0.0 1.0 0.00 0.00 0.00 92 973.8
20260901022858 58 262 0.0 1.0 0.00 0.00 0.00 92 973.5
20260901022423 58 262 0.0 7.0 0.00 0.00 0.00 92 973.5
20260901021938 57 262 1.0 7.0 0.00 0.00 0.00 92 973.3
20260901021505 58 262 1.0 3.0 0.00 0.00 0.00 88 973.2
20260901021028 58 262 1.0 3.0 0.00 0.00 0.00 88 973.4
20260901020618 58 262 2.0 3.0 0.00 0.00 0.00 88 973.4
20260901020128 58 262 2.0 3.0 0.00 0.00 0.00 88 973.3
20260901015700 58 262 2.0 3.0 0.00 0.00 0.00 88 973.3
20260901015223 58 262 4.0 3.0 0.00 0.00 0.00 88 973.1
20260901014808 58 262 4.0 1.0 0.00 0.00 0.00 88 973.0
20260901014333 58 318 1.0 1.0 0.00 0.00 0.00 88 972.9
20260901013838 58 318 1.0 5.0 0.00 0.00 0.00 88 973.3
20260901013403 58 318 1.0 5.0 0.00 0.00 0.00 88 972.9
20260901012933 58 318 5.0 3.0 0.00 0.00 0.00 88 973.0
20260901012458 58 297 4.0 3.0 0.00 0.00 0.00 88 973.1
20260901012019 57 297 4.0 5.0 0.00 0.00 0.00 88 972.8
20260901011608 57 297 2.0 5.0 0.00 0.00 0.00 88 973.0
20260901011158 57 297 3.0 7.0 0.00 0.00 0.00 88 972.9
20260901010738 57 297 3.0 7.0 0.00 0.00 0.00 88 972.9
20260901010318 57 297 2.0 9.0 0.00 0.00 0.00 88 972.9
20260901005838 57 297 3.0 5.0 0.00 0.00 0.00 88 972.8
20260901005423 57 297 4.0 9.0 0.00 0.00 0.00 88 972.7
20260901005003 57 297 4.0 5.0 0.00 0.00 0.00 88 972.6
20260901004518 57 297 1.0 3.0 0.00 0.00 0.00 88 972.8
20260901004038 57 297 1.0 3.0 0.00 0.00 0.00 88 972.7
20260901003558 57 174 1.0 3.0 0.00 0.00 0.00 88 972.6
20260901003133 57 174 0.0 1.0 0.00 0.00 0.00 88 972.6
20260901002708 58 174 2.0 5.0 0.00 0.00 0.00 88 972.6
20260901002258 58 174 2.0 5.0 0.00 0.00 0.00 88 972.7
20260901001858 58 174 3.0 5.0 0.00 0.00 0.00 88 972.6
20260901001443 58 174 2.0 3.0 0.00 0.00 0.00 88 972.6
20260901001013 58 174 4.0 7.0 0.00 0.00 0.00 88 972.6
20260901000553 58 174 4.0 3.0 0.00 0.00 0.00 88 972.4
20260901000118 58 174 1.0 5.0 0.00 0.00 0.00 88 972.6
20260831235648 58 285 1.0 5.0 0.00 0.00 0.00 88 972.7
20260831235223 58 285 1.0 5.0 0.00 0.00 0.00 88 972.5
20260831234759 58 285 1.0 5.0 0.00 0.00 0.00 88 972.6
20260831234338 58 285 1.0 1.0 0.00 0.00 0.00 88 972.5
20260831233923 58 166 3.0 3.0 0.00 0.00 0.00 88 972.5
20260831233448 58 166 4.0 3.0 0.00 0.00 0.00 88 972.6
20260831232953 58 166 4.0 5.0 0.00 0.00 0.00 88 972.7
20260831232523 58 166 1.0 1.0 0.00 0.00 0.00 88 972.6
20260831232058 58 166 1.0 3.0 0.00 0.00 0.00 88 972.8
20260831231638 58 166 1.0 3.0 0.00 0.00 0.00 88 972.8
20260831231218 58 206 1.0 3.0 0.00 0.00 0.00 88 972.8
20260831230748 59 206 2.0 3.0 0.00 0.00 0.00 88 972.5
20260831230333 59 206 0.0 3.0 0.00 0.00 0.00 88 972.7
20260831225838 59 157 0.0 3.0 0.00 0.00 0.00 88 972.6
20260831225403 59 157 2.0 5.0 0.00 0.00 0.00 88 972.7
20260831224918 59 157 2.0 9.0 0.00 0.00 0.00 88 972.7
20260831224448 59 157 0.0 7.0 0.00 0.00 0.00 88 972.5
20260831224008 59 157 0.0 3.0 0.00 0.00 0.00 88 972.6
20260831223528 59 220 0.0 5.0 0.00 0.00 0.00 88 972.6
20260831223118 59 220 0.0 3.0 0.00 0.00 0.00 88 972.5
20260831222633 59 220 0.0 3.0 0.00 0.00 0.00 88 972.5
20260831222143 59 257 0.0 3.0 0.00 0.00 0.00 88 972.6
20260831221723 59 359 3.0 5.0 0.00 0.00 0.00 88 972.7
20260831221243 59 359 1.0 3.0 0.00 0.00 0.00 88 972.7
20260831220819 59 359 3.0 1.0 0.00 0.00 0.00 88 972.4
20260831220343 59 359 3.0 5.0 0.00 0.00 0.00 83 972.6
20260831215853 59 359 0.0 0.0 0.00 0.00 0.00 83 972.6
20260831215438 59 344 0.0 0.0 0.00 0.00 0.00 83 972.5
20260831214948 59 344 0.0 1.0 0.00 0.00 0.00 83 972.8
20260831214523 61 344 7.0 11.0 0.00 0.00 0.00 83 972.7
20260831214043 61 344 2.0 11.0 0.00 0.00 0.00 83 972.6
20260831213603 61 344 2.0 7.0 0.00 0.00 0.00 64 972.6
20260831213148 61 353 2.0 5.0 0.00 0.00 0.00 64 972.5
20260831212723 61 306 2.0 14.0 0.00 0.00 0.00 64 972.3
20260831212248 61 306 2.0 14.0 0.00 0.00 0.00 64 972.3
20260831211819 61 306 8.0 18.0 0.00 0.00 0.00 64 972.5
20260831211408 62 265 4.0 9.0 0.00 0.00 0.00 64 972.5
20260831210938 62 265 1.0 9.0 0.00 0.00 0.00 64 972.3
20260831210458 62 265 1.0 3.0 0.00 0.00 0.00 64 972.2
20260831210039 62 265 1.0 1.0 0.00 0.00 0.00 64 972.0
20260831205553 62 265 1.0 3.0 0.00 0.00 0.00 64 971.9
20260831205133 62 265 1.0 3.0 0.00 0.00 0.00 64 972.1
20260831204639 62 178 1.0 5.0 0.00 0.00 0.00 64 971.8
20260831204203 62 306 1.0 5.0 0.00 0.00 0.00 64 971.7
20260831203719 62 312 1.0 3.0 0.00 0.00 0.00 64 971.7
20260831203243 62 312 4.0 3.0 0.00 0.00 0.00 64 971.7
20260831202811 62 275 2.0 3.0 0.00 0.00 0.00 64 971.8
20260831202348 62 275 2.0 5.0 0.00 0.00 0.00 64 971.5
20260831201938 65 275 2.0 7.0 0.00 0.00 0.00 64 971.5
20260831201513 65 275 1.0 5.0 0.00 0.00 0.00 64 971.6
20260831201033 65 275 2.0 9.0 0.00 0.00 0.00 64 971.6
20260831200618 65 275 2.0 9.0 0.00 0.00 0.00 64 971.4
20260831200153 65 275 3.0 11.0 0.00 0.00 0.00 64 971.4
20260831195708 65 134 10.0 11.0 0.00 0.00 0.00 64 971.4
20260831195218 65 300 10.0 9.0 0.00 0.00 0.00 64 971.3
20260831194758 65 300 6.0 14.0 0.00 0.00 0.00 64 971.2
20260831194338 65 300 6.0 11.0 0.00 0.00 0.00 64 971.2
20260831193918 65 300 6.0 20.0 0.00 0.00 0.00 64 971.1
20260831193502 65 300 6.0 7.0 0.00 0.00 0.00 64 971.0
20260831193033 65 197 6.0 18.0 0.00 0.00 0.00 64 971.0
20260831192628 65 197 5.0 23.0 0.00 0.00 0.00 60 971.0
20260831192219 65 197 5.0 23.0 0.00 0.00 0.00 60 970.9
20260831191748 65 197 3.0 22.0 0.00 0.00 0.00 60 971.0
20260831191313 65 212 7.0 14.0 0.00 0.00 0.00 60 970.8
20260831190848 65 212 4.0 16.0 0.00 0.00 0.00 60 970.6
20260831190418 65 212 3.0 16.0 0.00 0.00 0.00 60 970.7
20260831185953 65 250 3.0 16.0 0.00 0.00 0.00 49 970.7
20260831185519 66 250 3.0 20.0 0.00 0.00 0.00 49 970.7
20260831185045 66 250 3.0 20.0 0.00 0.00 0.00 49 970.9
20260831184613 66 250 3.0 18.0 0.00 0.00 0.00 49 970.9
20260831184148 66 315 3.0 16.0 0.00 0.00 0.00 49 970.8
20260831183728 67 315 3.0 11.0 0.00 0.00 0.00 49 970.7
20260831183259 67 342 7.0 16.0 0.00 0.00 0.00 49 970.5
20260831182833 67 289 6.0 16.0 0.00 0.00 0.00 49 970.7
20260831182423 68 319 6.0 16.0 0.00 0.00 0.00 49 970.3
20260831181939 68 319 6.0 14.0 0.00 0.00 0.00 49 970.2
20260831181448 68 319 4.0 20.0 0.00 0.00 0.00 49 970.0
20260831181013 69 314 4.0 11.0 0.00 0.00 0.00 49 969.7
20260831180603 69 314 3.0 14.0 0.00 0.00 0.00 49 969.5
20260831180135 69 314 3.0 13.0 0.00 0.00 0.00 49 969.2
20260831175723 69 314 6.0 13.0 0.00 0.00 0.00 44 969.1
20260831175301 69 314 8.0 14.0 0.00 0.00 0.00 44 969.0
20260831174828 69 314 2.0 9.0 0.00 0.00 0.00 44 969.0
20260831174403 69 314 7.0 9.0 0.00 0.00 0.00 44 969.2
20260831173943 69 341 7.0 9.0 0.00 0.00 0.00 44 969.2
20260831173525 69 341 7.0 5.0 0.00 0.00 0.00 44 969.2
20260831173103 69 341 2.0 5.0 0.00 0.00 0.00 44 969.2
20260831172653 69 341 2.0 13.0 0.00 0.00 0.00 44 969.1
20260831172218 69 341 2.0 13.0 0.00 0.00 0.00 44 969.2
20260831171759 69 341 6.0 11.0 0.00 0.00 0.00 44 969.3
20260831171323 69 256 4.0 14.0 0.00 0.00 0.00 44 969.3
20260831170858 69 267 8.0 13.0 0.00 0.00 0.00 44 969.3
20260831170439 69 267 2.0 11.0 0.00 0.00 0.00 44 969.2
20260831165959 71 289 2.0 11.0 0.00 0.00 0.00 44 969.2
20260831165548 71 289 0.0 11.0 0.00 0.00 0.00 44 969.3
20260831165118 71 289 5.0 13.0 0.00 0.00 0.00 44 969.3
20260831164633 71 296 3.0 20.0 0.00 0.00 0.00 44 969.6
20260831164148 71 271 9.0 23.0 0.00 0.00 0.00 44 969.3
20260831163743 71 271 4.0 20.0 0.00 0.00 0.00 44 969.4
20260831163333 71 334 8.0 22.0 0.00 0.00 0.00 44 969.4
20260831162859 71 334 8.0 14.0 0.00 0.00 0.00 44 969.4